Flag for U.S.A. Weather past 2 weeks in Seattle, Washington, U.S.A.

Now
69 °F

Passing clouds.


Feels Like: 69 °F
Forecast: 59 / 69 °F
Wind: 3 mph from Northwest

Location: Seattle Boeing Field

Current Time: Aug 4, 2015 at 9:22:12 PM

Latest Report: Aug 4, 2015 at 8:53 PM


Visibility: 10 mi

Pressure: 29.96 "Hg

Humidity: 53%

Dew point: 51 °F

Location of SeattleLocation

Historic Weather in Seattle — Graph

°F

Seattle temperature yesterday

Maximum temperature yesterday: 84 °F (at 5:53 PM)
Minimum temperature yesterday: 68 °F (at 6:53 AM)
Average temperature yesterday: 75 °F

Past Weeks' High & Low Weather Summary

 TemperatureHumidityPressure
High93 °F (Jul 31, 3:53 PM)85% (Jul 25, 12:53 AM)30.28 "Hg (Jul 25, 12:53 AM)
Low56 °F (Jul 27, 5:53 AM)14% (Jul 31, 3:53 PM)29.85 "Hg (Jul 22, 5:53 PM)
Average71 °F52%30.02 "Hg
* Reported Jul 20 7:53 PM — Aug 4 7:53 PM, Seattle, Weather by CustomWeather, © 2015

Note: Actual official high and low records may vary slightly from our data, if they occured in-between our weather recording intervals... More about our weather records

Advertising

Seattle weather history for previous 24 hours

 ConditionsComfort  
Time TempWeatherWind HumidityBarometerVisibility
7:53 PM
Tue, Aug 4
73 °FScattered clouds.6 mph50%29.94 "Hg10 mi
6:53 PM80 °FPassing clouds.6 mph34%29.93 "Hg10 mi
5:53 PM80 °FScattered clouds.No wind34%29.94 "Hg10 mi
4:53 PM78 °FScattered clouds.3 mph36%29.95 "Hg10 mi
3:53 PM79 °FScattered clouds.7 mph34%29.96 "Hg10 mi
2:53 PM78 °FSunny.5 mph35%29.97 "Hg10 mi
1:53 PM76 °FScattered clouds.6 mph47%29.98 "Hg10 mi
12:53 PM73 °FScattered clouds.10 mph51%30.00 "Hg10 mi
11:53 AM70 °FScattered clouds.8 mph57%30.00 "Hg10 mi
10:53 AM69 °FScattered clouds.9 mph59%30.01 "Hg10 mi
9:53 AM66 °FMostly cloudy.8 mph63%30.01 "Hg10 mi
8:53 AM64 °FOvercast.7 mph68%30.01 "Hg10 mi
8:00 AM64 °FOvercast.7 mph68%30.01 "Hg10 mi
6:53 AM62 °FPartly sunny.6 mph75%30.01 "Hg10 mi
5:53 AM62 °FPassing clouds.8 mph75%29.99 "Hg10 mi
4:53 AM61 °FClear.5 mph78%29.98 "Hg10 mi
3:53 AM63 °FClear.3 mph75%29.98 "Hg10 mi
2:53 AM64 °FClear.No wind73%29.98 "Hg10 mi
1:53 AM65 °FClear.5 mph73%29.97 "Hg10 mi
12:53 AM67 °FPassing clouds.3 mph66%29.96 "Hg10 mi
11:53 PM
Mon, Aug 3
69 °FPassing clouds.No wind61%29.95 "Hg10 mi
10:53 PM72 °FPassing clouds.No wind55%29.94 "Hg10 mi
9:53 PM75 °FPassing clouds.No wind47%29.92 "Hg10 mi
Weather by CustomWeather, © 2015

See weather overviewHow to use our weather pages